www.pogodaiklimat.ru

Погода и климат >> Архив погоды >> Россия >> Красноярский край >> Мыс Стерлегова


АРХИВ ПОГОДЫ на Мысе Стерлегова

Время (UTC), дата Ветер
(напр.,м/с)
 
Видим.   Явления Облачность Т
(С)
Тd
(С)
f
(%)
Тe
(С)
Тes
(С)
Комфортность P
(гПа)
Po
(гПа)
Тmin
(С)
Tmax
(С)
R
(мм)
R24
(мм)
S
(см)
03 12.02 ЮВ 6
{11}
20 км позёмок 3/0
[Ac trans]
-32.3 -35.9 70 -47 -47 опасность
обморожения
1007.9 1006.5
06 12.02 ЮВ 8 20 км позёмок 1/0
[Ac trans]
-31.2 -34.7 71 -47 -47 опасность
обморожения
1005.6 1004.2
09 12.02 ЮВ 7 20 км позёмок ясно -30.7 -34.2 71 -45 -45 опасность
обморожения
1003.7 1002.2
12 12.02 ЮВ 5 20 км {метель} ясно -31.1 -34.6 71 -44 -44 опасность
обморожения
1002.4 1001.0 -30.5
15 12.02 ЮВ 5 20 км ясно -29.9 -33.3 72 -42 -42 опасность
обморожения
1001.4 1000.0
18 12.02 ЮВ 4 20 км ясно -31.5 -35.1 70 -43 -43 опасность
обморожения
1000.8 999.3
21 12.02 Ю 3 20 км ясно -32.0 -35.6 70 -42 -42 опасность
обморожения
1000.8 999.4
00 13.02 Ю 2 20 км ясно -32.3 -36.0 69 -40 -40 опасность
обморожения
1000.5 999.1 -32.6 14
03 13.02 Ю 3 20 км 3/0
[Ac trans]
-32.1 -35.7 70 -42 -42 опасность
обморожения
1000.8 999.4 -33.2
06 13.02 Ю 4 20 км 3/0
[Ac trans]
-32.7 -36.4 69 -45 -45 опасность
обморожения
1000.6 999.2
09 13.02 Ю 4 20 км 3/0
[Ac trans]
-34.3 -38.2 68 -47 -47 опасность
обморожения
1001.2 999.7
12 13.02 Ю 4 20 км 6/0
[Ac trans Ci fib]
-33.9 -37.7 68 -46 -46 опасность
обморожения
1000.8 999.4 -32.0
15 13.02 ЮВ 3 20 км 3/0
[Ac trans]
-33.8 -37.6 68 -44 -44 опасность
обморожения
999.7 998.3
18 13.02 ЮВ 3 20 км 6/0
[Ci fib]
-32.3 -36.0 69 -42 -42 опасность
обморожения
998.8 997.4
21 13.02 В 2 20 км ясно -31.5 -35.1 70 -39 -39 опасность
обморожения
997.8 996.4
00 14.02 СВ 3 20 км ясно -31.7 -35.3 70 -42 -42 опасность
обморожения
996.8 995.3 -33.9 14
03 14.02 СВ 3 20 км 4/0
[Ac lent]
-32.3 -36.0 69 -42 -42 опасность
обморожения
995.9 994.4
06 14.02 СВ 2 20 км 10/0
[Ac trans Ci fib]
-29.4 -32.7 73 -37 -37 опасность
обморожения
994.8 993.4
09 14.02 СВ 3 20 км 10/0
[Ac trans Ci fib]
-28.0 -31.2 74 -37 -37 опасность
обморожения
994.5 993.2
12 14.02 С 2 20 км 10/0
[Ac trans Ci fib]
-28.9 -32.2 73 -36 -36 опасность
обморожения
994.1 992.7 -27.8
15 14.02 С 2 20 км 3/0
[Ac trans]
-29.2 -32.6 72 -37 -37 опасность
обморожения
994.2 992.9
18 14.02 СВ 1 20 км 10/0
[As op]
-28.8 -32.0 74 -33 -33 опасность
обморожения
994.3 992.9
21 14.02 штиль 0 20 км 8/0
[Ac trans]
-27.8 -31.0 74 -28 -28 994.1 992.7
00 15.02 Ю 3 4000 м слаб. снег 10/0
[As op]
-26.9 -30.0 75 -36 -36 опасность
обморожения
993.2 991.9 -30.1 0.0 14
03 15.02 Ю 10-12
{12}
4000 м слаб. ливневой снег 10/10 360 м
[Cb cap]
-25.6 -28.5 77 -41 -41 опасность
обморожения
991.8 990.4
06 15.02 ЮЗ 9-10
{14}
20 км сильный позёмок {ливн. осадки} 10/3 300 м
[Sc Ac trans Ci fib]
-24.2 -27.0 78 -39 -39 опасность
обморожения
991.3 989.9
09 15.02 ЮЗ 9-11
{12}
20 км сильный позёмок 10/0
[Ac trans Ci fib]
-23.7 -26.4 78 -38 -38 опасность
обморожения
991.6 990.3
12 15.02 ЮЗ 4
{11}
20 км {метель} 9/0
[Ac trans Ci fib]
-25.1 -28.0 77 -35 -35 опасность
обморожения
993.0 991.6 -23.3 0.0
15 15.02 штиль 0 4000 м слаб. снег 10/0
[As op]
-25.0 -27.8 77 -25 -25 993.3 991.9
18 15.02 Ю 2 4000 м слаб. снег 10/0
[As op]
-22.9 -25.4 80 -29 -29 993.3 992.0
21 15.02 С 1 4000 м слаб. снег 10/0
[As op]
-20.6 -23.0 81 -24 -24 994.0 992.6
00 16.02 С 2 4000 м слаб. снег 10/0
[As op]
-20.7 -23.1 81 -27 -27 993.9 992.5 -26.2 0.5 14
03 16.02 В 4 4000 м слаб. снег 10/10 210 м
[Frnb Ns]
-19.0 -21.2 83 -28 -28 992.2 990.9
06 16.02 ЮВ 2 4000 м слаб. снег 10/10 180 м
[Frnb Ns]
-14.5 -16.3 86 -19 -19 989.4 988.1
09 16.02 ЮЗ 6 4000 м слаб. снег {метель} 10/0
[As op]
-14.4 -16.2 86 -24 -24 989.3 988.0
12 16.02 ЮЗ 6 4000 м слаб. снег {метель} 10/0 400 м
[As op]
-14.6 -16.3 87 -24 -24 989.3 988.0 -12.0 3
15 16.02 ЮЗ 10-11
{11}
4000 м слаб. снег {метель} 10/4 300 м
[Sc As op]
-15.1 -16.9 86 -27 -27 988.9 987.6
18 16.02 ЮЗ 11-13
{14}
4000 м слаб. снег {метель} 10/0
[As op]
-16.7 -18.6 85 -30 -30 988.4 987.1
21 16.02 ЮЗ 11-14
{14}
2000 м слаб. снег {метель} 10/0
[As op]
-18.2 -20.3 84 -32 -32 опасность
обморожения
988.1 986.8
00 17.02 ЮЗ 13-15
{15}
2000 м слаб. снег {метель} 10/0
[As op]
-19.0 -21.1 83 -34 -34 опасность
обморожения
987.4 986.0 -19.0 1 14
03 17.02 ЮЗ 11-12
{15}
4000 м слаб. снег {метель} 10/0
[As op]
-19.3 -21.5 83 -33 -33 опасность
обморожения
987.2 985.8 -19.3
06 17.02 Ю 11-12
{13}
2000 м метель {снег} 10/0
[Ac trans Ci fib]
-19.9 -22.2 82 -34 -34 опасность
обморожения
987.5 986.2
09 17.02 Ю 8
{13}
4000 м слаб. снег {метель} 10/0
[As op]
-21.3 -23.7 81 -34 -34 опасность
обморожения
988.8 987.5
12 17.02 З 3 20 км {снег, метель} 6/0
[Ac trans]
-23.6 -26.3 78 -32 -32 опасность
обморожения
991.0 989.6 -18.9 0.6
15 17.02 З 4 20 км ясно -28.8 -31.9 74 -40 -40 опасность
обморожения
992.4 991.0
18 17.02 ЮЗ 3 20 км 3/0
[Ac trans]
-30.0 -33.3 73 -40 -40 опасность
обморожения
993.7 992.3
21 17.02 ЮЗ 2 20 км 10/0
[Cs]
-30.7 -34.2 71 -38 -38 опасность
обморожения
994.7 993.3
00 18.02 Ю 2 20 км ясно -29.5 -32.7 74 -37 -37 опасность
обморожения
994.9 993.5 -31.4 14
03 18.02 В 3 20 км 8/0
[Ac trans]
-27.4 -30.4 76 -36 -36 опасность
обморожения
994.9 993.5
06 18.02 Ю 3 20 км 10/0
[Ac trans Ci fib]
-26.9 -29.9 76 -36 -36 опасность
обморожения
995.5 994.1
09 18.02 ЮВ 4 4000 м слаб. снег 10/0
[As op]
-26.5 -29.5 76 -37 -37 опасность
обморожения
995.2 993.8
12 18.02 ЮВ 5 20 км {снег} 10/0
[Ac trans Cs]
-27.7 -30.8 75 -40 -40 опасность
обморожения
994.3 992.9 -25.3 0.0
15 18.02 ЮВ 6 4000 м слаб. снег 10/0
[As op]
-26.4 -29.3 76 -39 -39 опасность
обморожения
993.3 991.9
18 18.02 ЮВ 5 4000 м слаб. снег {метель} 10/0
[As op]
-24.4 -27.1 78 -36 -36 опасность
обморожения
992.1 990.8
21 18.02 Ю 9-12
{13}
4000 м слаб. снег {метель} 10/0
[As op]
-22.5 -25.1 79 -36 -36 опасность
обморожения
990.7 989.3
00 19.02 Ю 9-11
{13}
4000 м слаб. снег {метель} 10/0
[As op]
-20.7 -23.1 81 -34 -34 опасность
обморожения
989.3 988.0 -27.8 1 14

 

Местоположение метеостанции Мыс Стерлегова (Красноярский край, Россия): широта 75.41 долгота 88.90 высота над уровнем моря 11 м.

В архиве по умолчанию представлена погода на Мысе Стерлегова за последнюю неделю. Архивные данные за месяц целиком и за предыдущие месяцы, начиная с января 2011 года, Вы можете получить, выбрав интересующий диапазон дат из раскрывающегося списка и нажав кнопку "Ввод!".


*Определитесь, кто Вы:
робот инопланетянин человек

Внимание! Время в таблицах - всемирное. Для получения местного времени необходимо прибавить поправку, которая равна 7 ч.

Смотрите также архив погоды в соседних городах и на ближайших метеорологических станциях:

Погода на Островах Известий ЦИК (Красноярский край, Россия) (174 км)
Погода на Острове Русском (Красноярский край, Россия) (282 км)
Погода на Острове Уединения (Красноярский край, Россия) (290 км)
Погода на Острове Диксон (Красноярский край, Россия) (329 км)
Погода в Сопочной Карге (Красноярский край, Россия) (439 км)
Погода на Острове Голомянном (Красноярский край, Россия) (462 км)
Погода на Мысе Челюскин (Красноярский край, Россия) (472 км)
Погода в Крестах Таймырских (Красноярский край, Россия) (507 км)
Погода в Волочанке (Красноярский край, Россия) (525 км)
Погода на Мысе Баранова (Красноярский край, Россия) (528 км)

Пояснения к столбцам:

Ветер - указаны скорость ветра в м/с - средняя за 10 мин, порывы в срок и между сроками (в фигурных скобках) и направление, откуда дует ветер: С - северный, СВ - северо-восточный, В - восточный, ЮВ - юго-восточный, Ю - южный, ЮЗ - юго-западный, З - западный, СЗ - северо-западный.
Видимость - горизонтальная дальность видимости в метрах или километрах. При видимости от 1 до 10 км при отсутствии осадков обычно наблюдается дымка, при ухудшении видимости до 1 км и менее - туман. В сухую погоду видимость может ухудшаться дымом, пылью или мглою.
Явления - указаны атмосферные явления, наблюдавшиеся в срок или в последний час перед сроком; фигурными скобками обозначены явления, наблюдавшиеся между сроками (за 1-3 часа до срока); квадратными скобками обозначены град или гололедные отложения с указанием их диаметра в мм.
Облачность - указаны через наклонную черту общая и нижняя облачность в баллах и высота нижней границы облаков в метрах; квадратными скобками обозначены формы облаков: Ci - перистые, Cs - перисто-слоистые, Cc - перисто-кучевые, Ac - высококучевые, As - высокослоистые, Sc - слоисто-кучевые, Ns - слоисто-дождевые, Cu - кучевые, Cb - кучево-дождевые. Подробнее классификацию облаков см. в Атласе облаков (PDF).
T - Температура воздуха - температура, измеренная на высоте 2 м над землей.
Td - Температура точки росы - температура, при понижении до которой содержащийся в воздухе водяной пар достигнет насыщения.
f - Относительная влажность воздуха - влажноcть воздуха, измеренная на высоте 2 м над землей.
Te - Эффективная температура - температура, которую ощущает одетый по сезону человек в тени. Характеристика душности погоды. При расчете учитывается влияние влажности воздуха и скорости ветра на теплоощущения человека.
Tes - Эффективная температура на солнце - температура, которую ощущает человек, с поправкой на солнечный нагрев. Характеристика знойности погоды. Зависит от высоты солнца над горизонтом, облачности и скорости ветра. Ночью, в пасмурную погоду, а также при ветре 12 м/с и более поправка равна нулю.
P - Атмосферное давление - приведенное к уровню моря атмосферное давление.
Po - Атмосферное давление - измеренное на уровне метеостанции атмосферное давление.
Tmin - Минимальная температура - минимум температуры воздуха на высоте 2 м над землей.
Tmax - Максимальная температура - максимум температуры воздуха на высоте 2 м над землей.
R - Количество осадков - Количество выпавших осадков за период времени, мм. При наведении курсора мыши на число - период времени, за который выпало указанное количество осадков.
R24 - Количество осадков - Количество выпавших осадков за 24 часа, мм.
S - Снежный покров - Высота снежного покрова, см. При наведении курсора мыши на число - состояние снежного покрова и степень покрытия местности в баллах.